Regional Weather Roundup
Issued by NWS Kansas City/Pleasant Hill, MO

Home | Current Version | Previous Version | Text Only | Print | Product List | Glossary On
Versions: 1 2 3 4 5 6 7 8 9 10 11 12 13 14 15 16 17 18 19 20 21 22 23 24 25 26 27 28 29 30 31 32 33 34 35 36 37 38 39 40 41 42 43 44 45 46 47 48 49 50
000
ASUS43 KEAX 270411
RWREAX

WEATHER ROUNDUP FOR EASTERN KANSAS AND NORTHWEST MISSOURI
NATIONAL WEATHER SERVICE KANSAS CITY/PLEASANT HILL MO
1000 PM CST MON JAN 26 2015

KSZ040-057-103>105-MOZ028-029-037-043-270500-
...KANSAS CITY METROPOLITAN AREA...

CITY           SKY/WX    TMP DP  RH WIND       PRES   REMARKS
K.C. INTL      CLEAR     45  32  60 NW8       30.01R
K.C. DOWNTOWN  CLEAR     43  32  65 CALM      30.01R
LEES SUMMIT    CLEAR     48  32  53 NW5       30.00S
OLATHE - IXD   CLEAR     43  30  60 W3        30.03R
OLATHE - OJC   CLEAR     47  31  53 NW6       30.01R
LAWRENCE       CLEAR     32  26  78 CALM      30.03R

$$

MOZ001>008-011>017-020>025-030>033-038>040-044>046-053-054-270500-
...NORTHERN AND CENTRAL MISSOURI...

CITY           SKY/WX    TMP DP  RH WIND       PRES   REMARKS
ST. JOSEPH     CLEAR     30  25  81 CALM      30.02R
MOSBY          PTCLDY    39  32  75 CALM      29.99F
WARRENSBURG    PTCLDY    45  32  61 CALM      30.00S
WHITEMAN AFB   PTCLDY    47  33  58 NW8       29.98S
CLINTON        PTCLDY    46  34  61 NW5       30.00S
SEDALIA        CLEAR     45  33  63 NW10      29.99R
WARSAW         NOT AVBL
MARSHALL       CLEAR     46  36  66 W6        29.99R
CHILLICOTHE      N/A     47  34  60 NW7       29.98S
MOBERLY        CLEAR     41  32  70 W9        29.95S
KIRKSVILLE     PTCLDY    42  35  76 NW9       29.94S

$$

MOZ041-047>049-056>058-063>065-088>090-097-270500-
...EASTERN AND SOUTHERN MISSOURI...

CITY           SKY/WX    TMP DP  RH WIND       PRES   REMARKS
ST. LOUIS INTL CLOUDY    37  30  75 CALM      29.92S
SPIRIT OF STL  CLOUDY    33  31  92 CALM      29.91F
COLUMBIA       CLEAR     43  35  73 NW10      29.95R
JEFFERSON CITY CLEAR     35  31  85 N3        29.96R
MEXICO         MOCLDY    43  37  81 W10       29.92S
HANNIBAL       CLOUDY    45  34  65 NW6       29.91S
ROLLA          CLEAR     42  34  73 W9        29.93R
LEBANON        CLEAR     46  36  66 NW9       29.97S
OSAGE BEACH    CLEAR     46  34  61 NW5       29.97R
SPRINGFIELD    CLEAR     46  35  65 W8        29.99S
BRANSON        CLEAR     46  34  61 W5        30.00S
JOPLIN         CLEAR     47  34  60 MISG      30.02R
WEST PLAINS    CLEAR     46  34  62 W7        29.95S

$$

IAZ060-094-KSZ022-034>040-054-083-096-NEZ052-066-093-270500-
...KANSAS...SOUTHEAST NEBRASKA AND IOWA...

CITY           SKY/WX    TMP DP  RH WIND       PRES   REMARKS
TOPEKA         CLEAR     37  29  72 CALM      30.03S
MANHATTAN      CLEAR     36  27  69 CALM      30.03F
EMPORIA        CLEAR     47  32  56 CALM      30.03R
CHANUTE        CLEAR     47  35  63 NW5       30.04R
WICHITA        CLEAR     48  33  56 NW6       30.05S
OMAHA          CLEAR     38  32  79 N9        30.02R WCI  31
LINCOLN        CLEAR     30  24  78 N7        30.05R WCI  23
FALLS CITY     CLEAR     36  27  69 N5        30.02R WCI  32
LAMONI         CLEAR     40  33  76 NW13      29.96R WCI  32
DES MOINES     PTCLDY    42  34  73 N9        29.97R

$$



USA.gov is the U.S. government's official web portal to all federal, state and local government web resources and services.